NOAA NWS Hourly Roundups by Site

Regional Weather Roundup for Detroit, MI

To Select Another Site Choose from List

Select Site:  

000
ASUS43 KDTX 220701
RWRMI
MICHIGAN HOURLY REGIONAL WEATHER ROUNDUP
NATIONAL WEATHER SERVICE DETROIT/PONTIAC MI
300 AM EDT SUN MAY 22 2022

NOTE: "FAIR" INDICATES FEW OR NO CLOUDS BELOW 12,000 FEET WITH NO
SIGNIFICANT WEATHER AND/OR OBSTRUCTION TO VISIBILITY.

MIZ047>049-052>055-059>063-066>070-074>076-081>083-220800-
SOUTHEAST LOWER MICHIGAN

CITY           SKY/WX    TMP DP  RH WIND       PRES   REMARKS
ADRIAN         MOCLDY    59  53  80 N6        29.99S
ALMA           LGT RAIN  54  49  82 NW8       30.03S
ANN ARBOR      MOCLDY    60  54  80 N5        29.96F
BAD AXE        CLOUDY    46  39  76 NE10      30.02S
CARO           CLOUDY    52  49  89 N7        30.01R
DETROIT CITY   MOCLDY    66  61  84 NE5       29.95F HAZE
DETROIT        CLOUDY    65  59  81 NW5       29.96F
FLINT          CLOUDY    59  52  77 N7        29.99F
GROSSE ILE     CLOUDY    64  64 100 S3        29.95F FOG
HILLSDALE      CLOUDY    56  50  81 NW7       30.00S
HOWELL         CLOUDY    57  53  84 NW5       29.99F

CITY           SKY/WX    TMP DP  RH WIND       PRES   REMARKS
JACKSON        CLOUDY    57  50  77 W5        30.00F
LAMBERTVILLE   CLOUDY    64  58  80 CALM      29.96S
LANSING        CLOUDY    58  52  80 NW7       30.01F
LAPEER         CLOUDY    59  55  87 CALM      29.98F
MASON          CLOUDY    56  51  82 NW8       30.00F
MONROE         CLOUDY    64  61  91 W8        29.95S
MT. CLEMENS    CLOUDY    62  62 100 N7        29.94F
PONTIAC        CLOUDY    60  53  77 N8        29.96F
PORT HOPE        N/A     45  32  60 N8G20     30.02S
PORT HURON     CLOUDY    54  52  94 NE7       29.98F
TRI CITIES     CLOUDY    52  49  89 NE13      30.02F
MIDLAND        CLOUDY    53  46  75 NE6       30.03S
TROY           CLOUDY    63  54  73 N5        29.97F
SAGINAW HB     CLOUDY    54  50  86 NE6       30.01F
$$
MIZ043>046-050>051-056>058-064>065-071>073-077>080-220800-
SOUTHWEST LOWER MICHIGAN

CITY           SKY/WX    TMP DP  RH WIND       PRES   REMARKS
BATTLE CREEK   CLOUDY    55  49  80 NW8       30.03S
BENTON HARBOR  LGT RAIN  51  49  92 CALM      30.07R
BIG RAPIDS     CLOUDY    51  47  87 NW3       30.05R
COLDWATER      CLOUDY    56  51  81 NW6       30.03R
FREMONT        RAIN      52  50  94 CALM      30.04S
HOLLAND        CLOUDY    52  46  80 W3        30.05S
GRAND RAPIDS   CLOUDY    53  49  86 NW5       30.04S
IONIA          LGT RAIN  54  54 100 NW5       30.03R
KALAMAZOO      CLOUDY    56  48  74 NW6       30.04R
LUDINGTON      MOCLDY    48  43  81 CALM      30.06S
MARSHALL       CLOUDY    56  51  83 NW7       30.03R
MOUNT PLEASANT HVY RAIN  50  50  97 NW3       30.03S
MUSKEGON       CLOUDY    53  47  79 NW6       30.05S
SOUTH HAVEN    LGT RAIN  51  49  92 CALM      30.06S
$$
MIZ016>042-220800-
NORTHERN LOWER MICHIGAN

CITY           SKY/WX    TMP DP  RH WIND       PRES   REMARKS
ALPENA         LGT RAIN  42  40  92 NW6       30.05F
BEAVER ISLAND  LGT RAIN  40  34  81 N3        30.11S
BELLAIRE       CLOUDY    44  39  83 N3        30.08S
CADILLAC       CLOUDY    44  41  91 CALM      30.04S
CHARLEVOIX     MOCLDY    41  34  75 N10G17    30.09S
FRANKFORT      CLOUDY    46  38  71 CALM      30.08S
GAYLORD        CLOUDY    45  37  73 N5        30.04F
HARBOR SPRINGS CLOUDY    43  34  71 N5        30.08F
HOUGHTON LAKE  CLOUDY    48  45  89 N5        30.04F
MANISTEE       MOCLDY    47  39  74 NE5       30.06F
OSCODA         DRIZZLE   45  45 100 N6        30.03F
PELLSTON       CLOUDY    43  35  73 NW9       30.09S
ROGERS CITY    LGT RAIN  40  36  84 NW6       30.07F
TRAVERSE CITY  CLOUDY    46  36  68 N3        30.07S
$$
MIZ007>008-015-220800-
EASTERN UPPER MICHIGAN

CITY           SKY/WX    TMP DP  RH WIND       PRES   REMARKS
KINROSS        LGT RAIN  39  34  82 NW10      30.08S WCI  32
MACKINAC ISLAN CLOUDY    40  32  74 NW8       30.07F WCI  35
NEWBERRY       DRIZZLE   39  34  84 CALM      30.12S
S. S. MARIE    LGT RAIN  40  34  79 W7        30.07S
$$
MIZ004>006-011>014-085-220800-
CENTRAL UPPER MICHIGAN

CITY           SKY/WX    TMP DP  RH WIND       PRES   REMARKS
MANISTIQUE     CLOUDY    40  37  90 N5        30.11F
ESCANABA       LGT RAIN  41  35  79 NW5       30.13S
MENOMINEE      CLOUDY    45  37  73 NE8       30.11F
SAWYER-GWINN   LGT RAIN  37  35  92 W3        30.11F
MUNISING         N/A     39  36  89 CALM      30.11F
$$
MIZ001>003-009>011-084-220800-
WESTERN UPPER MICHIGAN

CITY           SKY/WX    TMP DP  RH WIND       PRES   REMARKS
IRON MOUNTAIN  CLOUDY    39  35  86 N3        30.11F
HOUGHTON       CLOUDY    42  30  62 NE6       30.10F
COPPER HARBOR    N/A     40  33  76 VRB3      30.12F
IRONWOOD       CLOUDY    41  36  82 W5        30.13S
$$

ABBREVIATIONS USED IN REMARKS
   TC - TEMPERATURE IN CELSIUS
  WCI - WIND CHILL INDEX
   HX - HEAT INDEX
  VSB - VISIBILITY



 

View Past Reports for Detroit, MI.

Products Courtesy of NOAA-NWS
NWS Information Parsing Script by Ken True at Saratoga Weather - Script by SE Lincoln Weather.